| time (UTC) | temp C | wind direction | speed KPH | gust KPH | rain 1hr cm | rain 24hr cm | rain mn cm | humidity % | barometer mb |
| 20260506214545 | 11 | 136 | 0.0 | 3.2 | 0.00 | 0.00 | 0.00 | 92 | 1016.3 |
| 20260506213042 | 11 | 165 | 0.0 | 3.2 | 0.00 | 0.00 | 0.00 | 92 | 1016.4 |
| 20260506211538 | 11 | 165 | 0.0 | 3.2 | 0.00 | 0.00 | 0.00 | 91 | 1016.4 |
| 20260506210036 | 12 | 157 | 0.0 | 3.2 | 0.00 | 0.00 | 0.00 | 90 | 1016.5 |
| 20260506164553 | 16 | 79 | 0.0 | 0.0 | 0.00 | 0.00 | 0.00 | 76 | 1015.3 |
| 20260506163044 | 16 | 79 | 0.0 | 0.0 | 0.00 | 0.00 | 0.00 | 75 | 1015.2 |
| 20260506161544 | 17 | 65 | 0.0 | 0.0 | 0.00 | 0.00 | 0.00 | 73 | 1015.2 |
| 20260506160045 | 17 | 94 | 0.0 | 0.0 | 0.00 | 0.00 | 0.00 | 73 | 1015.1 |
| 20260506154549 | 17 | 95 | 0.0 | 0.0 | 0.00 | 0.03 | 0.00 | 72 | 1015.1 |
| 20260506153047 | 17 | 83 | 0.0 | 1.6 | 0.00 | 0.03 | 0.00 | 72 | 1015.0 |
| 20260506151542 | 17 | 91 | 0.0 | 0.0 | 0.00 | 0.03 | 0.00 | 73 | 1015.0 |
| 20260506150043 | 17 | 96 | 0.0 | 1.6 | 0.00 | 0.03 | 0.00 | 73 | 1015.1 |
| 20260506144542 | 16 | 121 | 0.0 | 1.6 | 0.00 | 0.20 | 0.00 | 74 | 1015.1 |
| 20260506143043 | 16 | 107 | 0.0 | 3.2 | 0.00 | 0.20 | 0.00 | 76 | 1015.1 |
| 20260506141540 | 16 | 110 | 0.0 | 6.4 | 0.00 | 0.20 | 0.00 | 76 | 1015.3 |
| 20260506140041 | 16 | 126 | 0.0 | 8.0 | 0.00 | 0.20 | 0.00 | 77 | 1015.3 |
| 20260506134539 | 16 | 105 | 1.6 | 8.0 | 0.00 | 0.20 | 0.00 | 76 | 1015.5 |
| 20260506133039 | 16 | 144 | 3.2 | 8.0 | 0.00 | 0.20 | 0.00 | 75 | 1015.4 |
| 20260506131547 | 16 | 150 | 1.6 | 9.7 | 0.00 | 0.20 | 0.00 | 77 | 1015.5 |
| 20260506130052 | 16 | 138 | 0.0 | 8.0 | 0.00 | 0.20 | 0.00 | 77 | 1015.5 |
| 20260506124536 | 17 | 160 | 0.0 | 4.8 | 0.00 | 0.20 | 0.00 | 76 | 1015.6 |
| 20260506123037 | 16 | 323 | 1.6 | 6.4 | 0.00 | 0.20 | 0.00 | 73 | 1015.6 |
| 20260506121534 | 16 | 306 | 0.0 | 4.8 | 0.00 | 0.20 | 0.00 | 74 | 1015.7 |
| 20260506120035 | 16 | 311 | 1.6 | 9.7 | 0.00 | 0.20 | 0.00 | 74 | 1015.6 |
| 20260506114535 | 16 | 311 | 6.4 | 11.3 | 0.00 | 0.23 | 0.00 | 74 | 1015.8 |
| 20260506113035 | 16 | 335 | 4.8 | 16.1 | 0.00 | 0.23 | 0.00 | 74 | 1015.8 |
| 20260506111531 | 16 | 313 | 6.4 | 20.9 | 0.00 | 0.23 | 0.00 | 74 | 1015.9 |
| 20260506110030 | 16 | 323 | 6.4 | 16.1 | 0.00 | 0.23 | 0.00 | 73 | 1015.8 |
| 20260506104530 | 17 | 281 | 8.0 | 24.1 | 0.00 | 0.41 | 0.00 | 72 | 1015.7 |
| 20260506103033 | 17 | 302 | 3.2 | 17.7 | 0.00 | 0.41 | 0.00 | 71 | 1015.7 |